| time (UTC) | temp C | wind direction | speed KPH | gust KPH | rain 1hr cm | rain 24hr cm | rain mn cm | humidity % | barometer mb |
| 20260902102501 | 26 | 118 | 9.7 | 9.7 | 0.00 | 0.00 | 0.00 | 71 | 1015.6 |
| 20260902102030 | 26 | 129 | 8.0 | 11.3 | 0.00 | 0.00 | 0.00 | 71 | 1015.6 |
| 20260902101530 | 26 | 129 | 8.0 | 11.3 | 0.00 | 0.00 | 0.00 | 71 | 1015.6 |
| 20260902101030 | 26 | 123 | 8.0 | 11.3 | 0.00 | 0.00 | 0.00 | 71 | 1015.6 |
| 20260902100530 | 26 | 129 | 9.7 | 11.3 | 0.00 | 0.00 | 0.00 | 71 | 1015.6 |
| 20260902100031 | 26 | 126 | 9.7 | 11.3 | 0.00 | 0.00 | 0.00 | 70 | 1015.6 |
| 20260902095500 | 26 | 125 | 9.7 | 9.7 | 0.00 | 0.00 | 0.00 | 70 | 1015.6 |
| 20260902095000 | 26 | 120 | 9.7 | 9.7 | 0.00 | 0.00 | 0.00 | 70 | 1015.7 |
| 20260902094500 | 26 | 122 | 8.0 | 9.7 | 0.00 | 0.00 | 0.00 | 70 | 1015.7 |
| 20260902094000 | 27 | 122 | 8.0 | 8.0 | 0.00 | 0.00 | 0.00 | 70 | 1015.7 |
| 20260902093500 | 27 | 114 | 6.4 | 8.0 | 0.00 | 0.00 | 0.00 | 70 | 1015.7 |
| 20260902093000 | 27 | 138 | 4.8 | 4.8 | 0.00 | 0.00 | 0.00 | 69 | 1015.8 |
| 20260902092500 | 27 | 164 | 4.8 | 4.8 | 0.00 | 0.00 | 0.00 | 69 | 1015.8 |
| 20260902092000 | 27 | 177 | 4.8 | 4.8 | 0.00 | 0.00 | 0.00 | 69 | 1015.8 |
| 20260902091500 | 27 | 194 | 3.2 | 4.8 | 0.00 | 0.00 | 0.00 | 69 | 1015.8 |
| 20260902090500 | 27 | 161 | 4.8 | 8.0 | 0.00 | 0.00 | 0.00 | 68 | 1015.8 |
| 20260902090031 | 27 | 148 | 6.4 | 8.0 | 0.00 | 0.00 | 0.00 | 68 | 1015.8 |
| 20260902085529 | 27 | 167 | 6.4 | 8.0 | 0.00 | 0.00 | 0.00 | 67 | 1015.8 |
| 20260902085030 | 27 | 167 | 6.4 | 8.0 | 0.00 | 0.00 | 0.00 | 67 | 1015.8 |
| 20260902084530 | 27 | 182 | 8.0 | 8.0 | 0.00 | 0.00 | 0.00 | 67 | 1015.8 |
| 20260902084029 | 27 | 164 | 4.8 | 9.7 | 0.00 | 0.00 | 0.00 | 66 | 1015.8 |
| 20260902083459 | 27 | 167 | 8.0 | 9.7 | 0.00 | 0.00 | 0.00 | 66 | 1015.8 |
| 20260902083030 | 27 | 158 | 8.0 | 14.5 | 0.00 | 0.00 | 0.00 | 66 | 1015.8 |
| 20260902082531 | 28 | 170 | 8.0 | 14.5 | 0.00 | 0.00 | 0.00 | 65 | 1015.8 |
| 20260902081959 | 28 | 168 | 8.0 | 12.9 | 0.00 | 0.00 | 0.00 | 65 | 1015.8 |
| 20260902081459 | 28 | 161 | 8.0 | 12.9 | 0.00 | 0.00 | 0.00 | 65 | 1015.8 |
| 20260902080959 | 28 | 170 | 9.7 | 11.3 | 0.00 | 0.00 | 0.00 | 65 | 1015.8 |
| 20260902080459 | 28 | 168 | 9.7 | 11.3 | 0.00 | 0.00 | 0.00 | 64 | 1015.7 |
| 20260902075959 | 28 | 169 | 11.3 | 11.3 | 0.00 | 0.00 | 0.00 | 64 | 1015.8 |
| 20260902075459 | 28 | 163 | 9.7 | 12.9 | 0.00 | 0.00 | 0.00 | 64 | 1015.8 |
| 20260902074959 | 28 | 165 | 9.7 | 12.9 | 0.00 | 0.00 | 0.00 | 63 | 1015.7 |
| 20260902074459 | 28 | 170 | 9.7 | 14.5 | 0.00 | 0.00 | 0.00 | 63 | 1015.7 |
| 20260902074029 | 28 | 171 | 8.0 | 16.1 | 0.00 | 0.00 | 0.00 | 62 | 1015.7 |
| 20260902073459 | 28 | 166 | 11.3 | 20.9 | 0.00 | 0.00 | 0.00 | 62 | 1015.7 |
| 20260902072959 | 29 | 158 | 14.5 | 20.9 | 0.00 | 0.00 | 0.00 | 61 | 1015.7 |
| 20260902072459 | 29 | 169 | 17.7 | 20.9 | 0.00 | 0.00 | 0.00 | 61 | 1015.7 |
| 20260902071959 | 29 | 165 | 16.1 | 22.5 | 0.00 | 0.00 | 0.00 | 61 | 1015.7 |
| 20260902071529 | 29 | 159 | 14.5 | 22.5 | 0.00 | 0.00 | 0.00 | 61 | 1015.7 |
| 20260902070958 | 29 | 159 | 14.5 | 20.9 | 0.00 | 0.00 | 0.00 | 61 | 1015.7 |
| 20260902070458 | 29 | 149 | 19.3 | 20.9 | 0.00 | 0.00 | 0.00 | 60 | 1015.7 |
| 20260902070029 | 29 | 159 | 16.1 | 20.9 | 0.00 | 0.00 | 0.00 | 61 | 1015.7 |
| 20260902065529 | 29 | 143 | 16.1 | 20.9 | 0.00 | 0.00 | 0.00 | 61 | 1015.7 |
| 20260902064029 | 28 | 156 | 16.1 | 17.7 | 0.00 | 0.00 | 0.00 | 61 | 1015.7 |
| 20260902063528 | 28 | 155 | 12.9 | 17.7 | 0.00 | 0.00 | 0.00 | 61 | 1015.6 |
| 20260902063028 | 28 | 154 | 9.7 | 14.5 | 0.00 | 0.00 | 0.00 | 61 | 1015.6 |
| 20260902062528 | 28 | 161 | 9.7 | 14.5 | 0.00 | 0.00 | 0.00 | 61 | 1015.6 |
| 20260902062029 | 28 | 155 | 12.9 | 14.5 | 0.00 | 0.00 | 0.00 | 61 | 1015.6 |
| 20260902061531 | 28 | 170 | 8.0 | 14.5 | 0.00 | 0.00 | 0.00 | 61 | 1015.5 |
| 20260902060528 | 28 | 143 | 12.9 | 14.5 | 0.00 | 0.00 | 0.00 | 59 | 1015.4 |
| 20260902055457 | 28 | 158 | 9.7 | 9.7 | 0.00 | 0.00 | 0.00 | 59 | 1015.3 |
| 20260902055028 | 28 | 140 | 4.8 | 9.7 | 0.00 | 0.00 | 0.00 | 59 | 1015.3 |
| 20260902054527 | 29 | 123 | 4.8 | 11.3 | 0.00 | 0.00 | 0.00 | 58 | 1015.3 |
| 20260902054027 | 29 | 108 | 8.0 | 11.3 | 0.00 | 0.00 | 0.00 | 58 | 1015.3 |
| 20260902053457 | 30 | 113 | 6.4 | 8.0 | 0.00 | 0.00 | 0.00 | 57 | 1015.3 |
| 20260902052527 | 30 | 76 | 3.2 | 4.8 | 0.00 | 0.00 | 0.00 | 56 | 1015.2 |
| 20260902051457 | 30 | 94 | 3.2 | 4.8 | 0.00 | 0.00 | 0.00 | 56 | 1015.1 |
| 20260902050457 | 30 | 99 | 3.2 | 4.8 | 0.00 | 0.00 | 0.00 | 55 | 1015.1 |
| 20260902050027 | 30 | 101 | 3.2 | 4.8 | 0.00 | 0.00 | 0.00 | 55 | 1015.1 |
| 20260902045457 | 30 | 110 | 3.2 | 6.4 | 0.00 | 0.00 | 0.00 | 55 | 1015.1 |
| 20260902044456 | 30 | 89 | 4.8 | 6.4 | 0.00 | 0.00 | 0.00 | 54 | 1015.1 |
| 20260902044027 | 30 | 83 | 4.8 | 8.0 | 0.00 | 0.00 | 0.00 | 54 | 1015.1 |
| 20260902043456 | 30 | 74 | 6.4 | 8.0 | 0.00 | 0.00 | 0.00 | 54 | 1015.1 |
| 20260902043026 | 30 | 77 | 6.4 | 8.0 | 0.00 | 0.00 | 0.00 | 53 | 1015.1 |
| 20260902042026 | 30 | 57 | 4.8 | 6.4 | 0.00 | 0.00 | 0.00 | 53 | 1015.1 |
| 20260902040956 | 30 | 95 | 4.8 | 8.0 | 0.00 | 0.00 | 0.00 | 53 | 1015.0 |
| 20260902040526 | 30 | 90 | 4.8 | 8.0 | 0.00 | 0.00 | 0.00 | 52 | 1015.0 |
| 20260902040026 | 30 | 107 | 8.0 | 11.3 | 0.00 | 0.00 | 0.00 | 52 | 1015.0 |
| 20260902035526 | 31 | 82 | 4.8 | 12.9 | 0.00 | 0.00 | 0.00 | 51 | 1015.0 |
| 20260902035026 | 31 | 120 | 11.3 | 12.9 | 0.00 | 0.00 | 0.00 | 50 | 1015.0 |
| 20260902034526 | 31 | 123 | 9.7 | 11.3 | 0.00 | 0.00 | 0.00 | 50 | 1015.0 |
| 20260902034026 | 31 | 126 | 9.7 | 11.3 | 0.00 | 0.00 | 0.00 | 50 | 1015.1 |
| 20260902033026 | 31 | 145 | 6.4 | 6.4 | 0.00 | 0.00 | 0.00 | 50 | 1015.0 |
| 20260902032525 | 31 | 167 | 6.4 | 6.4 | 0.00 | 0.00 | 0.00 | 50 | 1015.0 |
| 20260902031956 | 31 | 171 | 4.8 | 6.4 | 0.00 | 0.00 | 0.00 | 50 | 1015.0 |
| 20260902031455 | 31 | 179 | 4.8 | 6.4 | 0.00 | 0.00 | 0.00 | 49 | 1014.9 |
| 20260902030955 | 31 | 189 | 4.8 | 6.4 | 0.00 | 0.00 | 0.00 | 49 | 1014.9 |
| 20260902030456 | 31 | 197 | 4.8 | 4.8 | 0.00 | 0.00 | 0.00 | 49 | 1014.8 |
| 20260902030025 | 31 | 199 | 4.8 | 6.4 | 0.00 | 0.00 | 0.00 | 49 | 1014.8 |
| 20260902025526 | 31 | 168 | 4.8 | 6.4 | 0.00 | 0.00 | 0.00 | 49 | 1014.7 |
| 20260902025025 | 31 | 170 | 4.8 | 8.0 | 0.00 | 0.00 | 0.00 | 49 | 1014.6 |
| 20260902024526 | 31 | 131 | 6.4 | 8.0 | 0.00 | 0.00 | 0.00 | 49 | 1014.5 |
| 20260902024028 | 31 | 128 | 8.0 | 8.0 | 0.00 | 0.00 | 0.00 | 49 | 1014.4 |
| 20260902023525 | 31 | 147 | 8.0 | 8.0 | 0.00 | 0.00 | 0.00 | 49 | 1014.4 |
| 20260902022955 | 31 | 156 | 8.0 | 8.0 | 0.00 | 0.00 | 0.00 | 49 | 1014.3 |
| 20260902022525 | 31 | 174 | 4.8 | 9.7 | 0.00 | 0.00 | 0.00 | 50 | 1014.2 |
| 20260902022025 | 31 | 141 | 8.0 | 9.7 | 0.00 | 0.00 | 0.00 | 49 | 1014.1 |
| 20260902021525 | 31 | 131 | 8.0 | 9.7 | 0.00 | 0.00 | 0.00 | 49 | 1014.1 |
| 20260902021025 | 31 | 127 | 9.7 | 11.3 | 0.00 | 0.00 | 0.00 | 48 | 1014.0 |
| 20260902020455 | 31 | 132 | 8.0 | 11.3 | 0.00 | 0.00 | 0.00 | 48 | 1013.9 |
| 20260902020025 | 31 | 140 | 8.0 | 11.3 | 0.00 | 0.00 | 0.00 | 48 | 1013.7 |
| 20260902015456 | 31 | 126 | 9.7 | 12.9 | 0.00 | 0.00 | 0.00 | 47 | 1013.6 |
| 20260902015026 | 31 | 128 | 9.7 | 14.5 | 0.00 | 0.00 | 0.00 | 47 | 1013.5 |
| 20260902013955 | 32 | 131 | 12.9 | 14.5 | 0.00 | 0.00 | 0.00 | 45 | 1013.4 |
| 20260902012954 | 32 | 135 | 12.9 | 16.1 | 0.00 | 0.00 | 0.00 | 44 | 1013.2 |
| 20260902012524 | 32 | 137 | 12.9 | 12.9 | 0.00 | 0.00 | 0.00 | 43 | 1013.3 |
| 20260902012024 | 33 | 131 | 11.3 | 12.9 | 0.00 | 0.00 | 0.00 | 42 | 1013.3 |
| 20260902011524 | 33 | 133 | 8.0 | 8.0 | 0.00 | 0.00 | 0.00 | 42 | 1013.2 |
| 20260902011024 | 33 | 122 | 8.0 | 9.7 | 0.00 | 0.00 | 0.00 | 42 | 1013.2 |
| 20260902010524 | 33 | 124 | 6.4 | 9.7 | 0.00 | 0.00 | 0.00 | 41 | 1013.2 |
| 20260902010024 | 33 | 122 | 8.0 | 9.7 | 0.00 | 0.00 | 0.00 | 41 | 1013.2 |
| 20260902005524 | 33 | 129 | 6.4 | 11.3 | 0.00 | 0.00 | 0.00 | 40 | 1013.2 |
| 20260902005024 | 34 | 137 | 8.0 | 14.5 | 0.00 | 0.00 | 0.00 | 40 | 1013.2 |
| 20260902004524 | 34 | 139 | 9.7 | 14.5 | 0.00 | 0.00 | 0.00 | 40 | 1013.2 |
| 20260902004024 | 34 | 124 | 9.7 | 14.5 | 0.00 | 0.00 | 0.00 | 39 | 1013.2 |
| 20260902003524 | 35 | 135 | 9.7 | 16.1 | 0.00 | 0.00 | 0.00 | 39 | 1013.2 |
| 20260902003024 | 35 | 145 | 11.3 | 16.1 | 0.00 | 0.00 | 0.00 | 39 | 1013.3 |
| 20260902002524 | 35 | 126 | 12.9 | 19.3 | 0.00 | 0.00 | 0.00 | 38 | 1013.3 |
| 20260902001954 | 35 | 144 | 11.3 | 19.3 | 0.00 | 0.00 | 0.00 | 37 | 1013.4 |
| 20260902001525 | 35 | 155 | 14.5 | 17.7 | 0.00 | 0.00 | 0.00 | 36 | 1013.4 |
| 20260902001024 | 35 | 135 | 14.5 | 20.9 | 0.00 | 0.00 | 0.00 | 36 | 1013.4 |
| 20260902000453 | 35 | 149 | 14.5 | 20.9 | 0.00 | 0.00 | 0.00 | 36 | 1013.5 |
| 20260902000024 | 35 | 126 | 14.5 | 20.9 | 0.00 | 0.00 | 0.00 | 37 | 1013.4 |
| 20260901235524 | 35 | 131 | 19.3 | 24.1 | 0.00 | 0.00 | 0.00 | 36 | 1013.4 |
| 20260901234953 | 35 | 134 | 17.7 | 24.1 | 0.00 | 0.00 | 0.00 | 36 | 1013.5 |
| 20260901234523 | 36 | 135 | 20.9 | 24.1 | 0.00 | 0.00 | 0.00 | 35 | 1013.5 |
| 20260901234023 | 35 | 131 | 16.1 | 27.4 | 0.00 | 0.00 | 0.00 | 35 | 1013.5 |
| 20260901233023 | 36 | 120 | 19.3 | 25.7 | 0.00 | 0.00 | 0.00 | 35 | 1013.6 |
| 20260901232454 | 36 | 148 | 14.5 | 22.5 | 0.00 | 0.00 | 0.00 | 34 | 1013.7 |
| 20260901232024 | 36 | 101 | 14.5 | 24.1 | 0.00 | 0.00 | 0.00 | 35 | 1013.7 |
| 20260901231523 | 36 | 110 | 16.1 | 24.1 | 0.00 | 0.00 | 0.00 | 34 | 1013.6 |
| 20260901231023 | 36 | 108 | 17.7 | 24.1 | 0.00 | 0.00 | 0.00 | 34 | 1013.7 |
| 20260901230023 | 36 | 98 | 11.3 | 24.1 | 0.00 | 0.00 | 0.00 | 34 | 1013.7 |
| 20260901225523 | 36 | 127 | 14.5 | 24.1 | 0.00 | 0.00 | 0.00 | 34 | 1013.7 |
| 20260901225023 | 36 | 102 | 16.1 | 20.9 | 0.00 | 0.00 | 0.00 | 34 | 1013.7 |
| 20260901224523 | 36 | 105 | 19.3 | 20.9 | 0.00 | 0.00 | 0.00 | 34 | 1013.7 |
| 20260901224023 | 36 | 152 | 11.3 | 30.6 | 0.00 | 0.00 | 0.00 | 34 | 1013.7 |
| 20260901223023 | 36 | 92 | 17.7 | 29.0 | 0.00 | 0.00 | 0.00 | 34 | 1013.7 |
| 20260901222523 | 36 | 138 | 16.1 | 29.0 | 0.00 | 0.00 | 0.00 | 34 | 1013.7 |
| 20260901221523 | 36 | 117 | 16.1 | 19.3 | 0.00 | 0.00 | 0.00 | 34 | 1013.9 |
| 20260901220523 | 36 | 120 | 14.5 | 27.4 | 0.00 | 0.00 | 0.00 | 34 | 1013.9 |
| 20260901220022 | 36 | 152 | 17.7 | 29.0 | 0.00 | 0.00 | 0.00 | 33 | 1013.9 |
| 20260901215523 | 36 | 99 | 14.5 | 29.0 | 0.00 | 0.00 | 0.00 | 34 | 1014.0 |
| 20260901215022 | 36 | 176 | 19.3 | 22.5 | 0.00 | 0.00 | 0.00 | 34 | 1014.0 |
| 20260901214022 | 36 | 132 | 12.9 | 24.1 | 0.00 | 0.00 | 0.00 | 35 | 1014.2 |
| 20260901213522 | 36 | 137 | 16.1 | 24.1 | 0.00 | 0.00 | 0.00 | 35 | 1014.2 |
| 20260901213023 | 36 | 87 | 16.1 | 24.1 | 0.00 | 0.00 | 0.00 | 34 | 1014.1 |
| 20260901212525 | 36 | 156 | 19.3 | 25.7 | 0.00 | 0.00 | 0.00 | 35 | 1014.0 |
| 20260901212023 | 36 | 115 | 14.5 | 25.7 | 0.00 | 0.00 | 0.00 | 35 | 1014.2 |
| 20260901211522 | 36 | 104 | 12.9 | 25.7 | 0.00 | 0.00 | 0.00 | 35 | 1014.3 |
| 20260901210522 | 36 | 136 | 22.5 | 22.5 | 0.00 | 0.00 | 0.00 | 36 | 1014.3 |
| 20260901205525 | 36 | 171 | 11.3 | 17.7 | 0.00 | 0.00 | 0.00 | 37 | 1014.4 |
| 20260901205025 | 35 | 174 | 12.9 | 24.1 | 0.00 | 0.00 | 0.00 | 37 | 1014.5 |
| 20260901204524 | 35 | 173 | 12.9 | 24.1 | 0.00 | 0.00 | 0.00 | 38 | 1014.6 |
| 20260901203521 | 35 | 133 | 14.5 | 24.1 | 0.00 | 0.00 | 0.00 | 37 | 1014.7 |
| 20260901203025 | 36 | 94 | 12.9 | 19.3 | 0.00 | 0.00 | 0.00 | 37 | 1014.7 |
| 20260901202022 | 36 | 115 | 17.7 | 25.7 | 0.00 | 0.00 | 0.00 | 37 | 1014.8 |
| 20260901201523 | 35 | 192 | 14.5 | 30.6 | 0.00 | 0.00 | 0.00 | 38 | 1014.9 |
| 20260901200523 | 35 | 208 | 9.7 | 25.7 | 0.00 | 0.00 | 0.00 | 38 | 1015.1 |
| 20260901200021 | 35 | 128 | 11.3 | 25.7 | 0.00 | 0.00 | 0.00 | 38 | 1015.1 |
| 20260901195521 | 35 | 87 | 11.3 | 27.4 | 0.00 | 0.00 | 0.00 | 39 | 1015.1 |
| 20260901195021 | 35 | 99 | 27.4 | 29.0 | 0.00 | 0.00 | 0.00 | 39 | 1015.1 |
| 20260901194521 | 35 | 145 | 9.7 | 29.0 | 0.00 | 0.00 | 0.00 | 39 | 1015.2 |
| 20260901194020 | 36 | 123 | 25.7 | 29.0 | 0.00 | 0.00 | 0.00 | 38 | 1015.1 |
| 20260901193020 | 34 | 77 | 12.9 | 25.7 | 0.00 | 0.00 | 0.00 | 40 | 1015.3 |
| 20260901192520 | 34 | 99 | 14.5 | 25.7 | 0.00 | 0.00 | 0.00 | 40 | 1015.4 |
| 20260901191520 | 35 | 165 | 4.8 | 24.1 | 0.00 | 0.00 | 0.00 | 38 | 1015.5 |
| 20260901190520 | 35 | 150 | 11.3 | 20.9 | 0.00 | 0.00 | 0.00 | 38 | 1015.7 |
| 20260901190020 | 36 | 174 | 14.5 | 20.9 | 0.00 | 0.00 | 0.00 | 35 | 1015.7 |
| 20260901185520 | 35 | 140 | 11.3 | 19.3 | 0.00 | 0.00 | 0.00 | 38 | 1015.8 |
| 20260901185020 | 35 | 259 | 4.8 | 25.7 | 0.00 | 0.00 | 0.00 | 39 | 1015.8 |
| 20260901184520 | 35 | 172 | 20.9 | 25.7 | 0.00 | 0.00 | 0.00 | 38 | 1015.9 |
| 20260901184020 | 35 | 94 | 14.5 | 24.1 | 0.00 | 0.00 | 0.00 | 40 | 1016.1 |
| 20260901183520 | 35 | 127 | 24.1 | 24.1 | 0.00 | 0.00 | 0.00 | 40 | 1016.1 |
| 20260901183021 | 34 | 132 | 4.8 | 19.3 | 0.00 | 0.00 | 0.00 | 42 | 1016.3 |
| 20260901182520 | 34 | 93 | 11.3 | 24.1 | 0.00 | 0.00 | 0.00 | 41 | 1016.3 |
| 20260901182019 | 34 | 229 | 14.5 | 25.7 | 0.00 | 0.00 | 0.00 | 41 | 1016.3 |
| 20260901181519 | 34 | 148 | 16.1 | 25.7 | 0.00 | 0.00 | 0.00 | 42 | 1016.4 |
| 20260901180019 | 34 | 144 | 24.1 | 25.7 | 0.00 | 0.00 | 0.00 | 41 | 1016.6 |
| 20260901175520 | 35 | 121 | 17.7 | 24.1 | 0.00 | 0.00 | 0.00 | 41 | 1016.6 |
| 20260901175019 | 34 | 130 | 12.9 | 22.5 | 0.00 | 0.00 | 0.00 | 43 | 1016.8 |
| 20260901174519 | 34 | 155 | 14.5 | 22.5 | 0.00 | 0.00 | 0.00 | 44 | 1016.8 |
| 20260901174019 | 33 | 208 | 14.5 | 22.5 | 0.00 | 0.00 | 0.00 | 44 | 1016.9 |
| 20260901173519 | 34 | 124 | 14.5 | 22.5 | 0.00 | 0.00 | 0.00 | 43 | 1016.9 |
| 20260901173019 | 34 | 94 | 17.7 | 27.4 | 0.00 | 0.00 | 0.00 | 44 | 1017.0 |
| 20260901172519 | 33 | 152 | 4.8 | 27.4 | 0.00 | 0.00 | 0.00 | 45 | 1017.1 |
| 20260901171519 | 33 | 220 | 14.5 | 17.7 | 0.00 | 0.00 | 0.00 | 44 | 1017.2 |
| 20260901171019 | 33 | 226 | 8.0 | 20.9 | 0.00 | 0.00 | 0.00 | 45 | 1017.3 |
| 20260901170019 | 33 | 249 | 9.7 | 19.3 | 0.00 | 0.00 | 0.00 | 45 | 1017.4 |
| 20260901165519 | 34 | 153 | 14.5 | 16.1 | 0.00 | 0.00 | 0.00 | 45 | 1017.4 |
| 20260901165019 | 33 | 112 | 4.8 | 17.7 | 0.00 | 0.00 | 0.00 | 46 | 1017.4 |
| 20260901164519 | 33 | 102 | 14.5 | 17.7 | 0.00 | 0.00 | 0.00 | 46 | 1017.5 |
| 20260901164019 | 33 | 211 | 3.2 | 14.5 | 0.00 | 0.00 | 0.00 | 46 | 1017.5 |
| 20260901163519 | 32 | 144 | 11.3 | 19.3 | 0.00 | 0.00 | 0.00 | 48 | 1017.5 |
| 20260901162519 | 33 | 137 | 9.7 | 16.1 | 0.00 | 0.00 | 0.00 | 47 | 1017.6 |
| 20260901161519 | 32 | 213 | 12.9 | 22.5 | 0.00 | 0.00 | 0.00 | 48 | 1017.6 |
| 20260901161019 | 32 | 228 | 9.7 | 20.9 | 0.00 | 0.00 | 0.00 | 49 | 1017.7 |
| 20260901160519 | 32 | 187 | 12.9 | 20.9 | 0.00 | 0.00 | 0.00 | 49 | 1017.6 |
| 20260901160019 | 32 | 249 | 11.3 | 19.3 | 0.00 | 0.00 | 0.00 | 50 | 1017.6 |
| 20260901155519 | 32 | 169 | 6.4 | 19.3 | 0.00 | 0.00 | 0.00 | 50 | 1017.6 |
| 20260901155018 | 32 | 204 | 11.3 | 16.1 | 0.00 | 0.00 | 0.00 | 50 | 1017.6 |
| 20260901154548 | 32 | 207 | 12.9 | 16.1 | 0.00 | 0.00 | 0.00 | 51 | 1017.7 |
| 20260901154018 | 32 | 199 | 11.3 | 16.1 | 0.00 | 0.00 | 0.00 | 51 | 1017.6 |
| 20260901153518 | 32 | 192 | 6.4 | 16.1 | 0.00 | 0.00 | 0.00 | 52 | 1017.6 |
| 20260901153019 | 31 | 201 | 8.0 | 17.7 | 0.00 | 0.00 | 0.00 | 53 | 1017.5 |
| 20260901152518 | 31 | 160 | 9.7 | 17.7 | 0.00 | 0.00 | 0.00 | 53 | 1017.5 |
| 20260901152018 | 31 | 221 | 17.7 | 17.7 | 0.00 | 0.00 | 0.00 | 54 | 1017.5 |
| 20260901151518 | 31 | 138 | 9.7 | 16.1 | 0.00 | 0.00 | 0.00 | 55 | 1017.6 |
| 20260901151018 | 31 | 242 | 8.0 | 17.7 | 0.00 | 0.00 | 0.00 | 55 | 1017.6 |
| 20260901150518 | 31 | 289 | 3.2 | 17.7 | 0.00 | 0.00 | 0.00 | 56 | 1017.6 |
| 20260901150018 | 30 | 232 | 8.0 | 19.3 | 0.00 | 0.00 | 0.00 | 57 | 1017.6 |
| 20260901145518 | 30 | 225 | 14.5 | 19.3 | 0.00 | 0.00 | 0.00 | 57 | 1017.6 |
| 20260901145018 | 30 | 199 | 8.0 | 16.1 | 0.00 | 0.00 | 0.00 | 58 | 1017.7 |
| 20260901144518 | 30 | 220 | 14.5 | 16.1 | 0.00 | 0.00 | 0.00 | 57 | 1017.7 |
| 20260901144019 | 30 | 183 | 8.0 | 14.5 | 0.00 | 0.00 | 0.00 | 57 | 1017.7 |
| 20260901143518 | 30 | 223 | 9.7 | 14.5 | 0.00 | 0.00 | 0.00 | 58 | 1017.7 |
| 20260901143018 | 30 | 190 | 12.9 | 14.5 | 0.00 | 0.00 | 0.00 | 58 | 1017.7 |
| 20260901142018 | 29 | 233 | 9.7 | 12.9 | 0.00 | 0.00 | 0.00 | 59 | 1017.7 |
| 20260901141518 | 29 | 141 | 4.8 | 12.9 | 0.00 | 0.00 | 0.00 | 60 | 1017.7 |
| 20260901140518 | 29 | 227 | 12.9 | 14.5 | 0.00 | 0.00 | 0.00 | 60 | 1017.7 |
| 20260901140017 | 28 | 179 | 8.0 | 12.9 | 0.00 | 0.00 | 0.00 | 61 | 1017.6 |
| 20260901135518 | 28 | 224 | 4.8 | 11.3 | 0.00 | 0.00 | 0.00 | 61 | 1017.6 |
| 20260901135017 | 28 | 198 | 6.4 | 9.7 | 0.00 | 0.00 | 0.00 | 62 | 1017.6 |
| 20260901134517 | 28 | 191 | 6.4 | 11.3 | 0.00 | 0.00 | 0.00 | 62 | 1017.6 |
| 20260901134017 | 27 | 165 | 4.8 | 11.3 | 0.00 | 0.00 | 0.00 | 63 | 1017.6 |
| 20260901133517 | 27 | 214 | 9.7 | 9.7 | 0.00 | 0.00 | 0.00 | 63 | 1017.5 |
| 20260901133018 | 27 | 191 | 6.4 | 9.7 | 0.00 | 0.00 | 0.00 | 64 | 1017.5 |
| 20260901132517 | 27 | 193 | 6.4 | 9.7 | 0.00 | 0.00 | 0.00 | 65 | 1017.5 |
| 20260901132017 | 27 | 176 | 8.0 | 9.7 | 0.00 | 0.00 | 0.00 | 66 | 1017.5 |
| 20260901131517 | 27 | 180 | 9.7 | 9.7 | 0.00 | 0.00 | 0.00 | 67 | 1017.5 |
| 20260901131017 | 26 | 193 | 8.0 | 8.0 | 0.00 | 0.00 | 0.00 | 68 | 1017.4 |
| 20260901130517 | 26 | 178 | 8.0 | 9.7 | 0.00 | 0.00 | 0.00 | 68 | 1017.5 |
| 20260901130017 | 26 | 131 | 6.4 | 9.7 | 0.00 | 0.00 | 0.00 | 69 | 1017.5 |
| 20260901125518 | 26 | 121 | 8.0 | 9.7 | 0.00 | 0.00 | 0.00 | 70 | 1017.4 |
| 20260901125017 | 25 | 128 | 8.0 | 8.0 | 0.00 | 0.00 | 0.00 | 70 | 1017.4 |
| 20260901124517 | 25 | 226 | 4.8 | 9.7 | 0.00 | 0.00 | 0.00 | 71 | 1017.3 |
| 20260901124017 | 25 | 146 | 4.8 | 9.7 | 0.00 | 0.00 | 0.00 | 71 | 1017.2 |
| 20260901123517 | 25 | 127 | 8.0 | 9.7 | 0.00 | 0.00 | 0.00 | 70 | 1017.2 |
| 20260901122517 | 25 | 166 | 6.4 | 9.7 | 0.00 | 0.00 | 0.00 | 70 | 1017.0 |
| 20260901122017 | 25 | 150 | 4.8 | 9.7 | 0.00 | 0.00 | 0.00 | 71 | 1016.9 |
| 20260901121017 | 25 | 99 | 8.0 | 9.7 | 0.00 | 0.00 | 0.00 | 72 | 1016.9 |
| 20260901120517 | 25 | 81 | 8.0 | 9.7 | 0.00 | 0.00 | 0.00 | 72 | 1016.9 |
| 20260901120016 | 25 | 73 | 8.0 | 8.0 | 0.00 | 0.00 | 0.00 | 69 | 1016.9 |
| 20260901115017 | 25 | 130 | 6.4 | 9.7 | 0.00 | 0.00 | 0.00 | 69 | 1016.8 |
| 20260901114016 | 25 | 251 | 9.7 | 11.3 | 0.00 | 0.00 | 0.00 | 69 | 1016.6 |
| 20260901113516 | 25 | 255 | 9.7 | 11.3 | 0.00 | 0.00 | 0.00 | 70 | 1016.6 |
| 20260901113016 | 25 | 252 | 8.0 | 11.3 | 0.00 | 0.00 | 0.00 | 70 | 1016.5 |
| 20260901112516 | 25 | 240 | 9.7 | 14.5 | 0.00 | 0.00 | 0.00 | 71 | 1016.5 |
| 20260901112016 | 25 | 241 | 8.0 | 14.5 | 0.00 | 0.00 | 0.00 | 70 | 1016.5 |
| 20260901111516 | 25 | 248 | 11.3 | 14.5 | 0.00 | 0.00 | 0.00 | 70 | 1016.4 |
| 20260901110516 | 26 | 247 | 12.9 | 12.9 | 0.00 | 0.00 | 0.00 | 69 | 1016.5 |
| 20260901105516 | 26 | 241 | 8.0 | 11.3 | 0.00 | 0.00 | 0.00 | 68 | 1016.5 |
| 20260901105016 | 26 | 255 | 9.7 | 11.3 | 0.00 | 0.00 | 0.00 | 67 | 1016.5 |
| 20260901104516 | 26 | 256 | 9.7 | 11.3 | 0.00 | 0.00 | 0.00 | 67 | 1016.5 |
| 20260901104016 | 26 | 257 | 9.7 | 11.3 | 0.00 | 0.00 | 0.00 | 66 | 1016.5 |
| 20260901103515 | 26 | 247 | 9.7 | 11.3 | 0.00 | 0.00 | 0.00 | 66 | 1016.5 |